Regional Weather Roundup
Issued by NWS Charleston, SC

Current Version | Previous Version | Graphics & Text | Print | Product List | Glossary On
Versions: 1 2 3 4 5 6 7 8 9 10 11 12 13 14 15 16 17 18 19 20 21 22 23 24 25 26 27 28 29 30 31 32 33 34 35 36 37 38 39 40 41 42 43 44 45 46 47 48 49 50
525
ASUS42 KCHS 091325
RWRCHS

REGIONAL WEATHER ROUNDUP
NATIONAL WEATHER SERVICE CHARLESTON SC
800 AM EST TUE FEB 09 2016

NOTE: "FAIR" INDICATES FEW OR NO CLOUDS BELOW 12,000 FEET WITH NO
SIGNIFICANT WEATHER AND/OR OBSTRUCTIONS TO VISIBILITY.

NOT ALL STATIONS ARE QUALITY CONTROLLED BY THE NATIONAL
WEATHER SERVICE. USE DATA WITH CAUTION...ESPECIALLY
DEWPOINT OBSERVATIONS.

NOTICE: OBSERVATIONS FOR THE SAVANNAH-HILTON HEAD INTERNATIONAL AIRPORT
/KSAV/ HAVE BEEN TEMPORARILY REMOVED DUE TO AN ERRONEOUS TEMPERATURE
SENSOR. THE OBSERVATION WILL BE REINTRODUCED ONCE REPAIRS ARE COMPLETE.

SCZ027-030-031-034>040-042>050-091400-
...SOUTHEAST SOUTH CAROLINA...

CITY           SKY/WX    TMP DP  RH WIND       PRES   REMARKS
N CHARLESTON   FAIR      37  28  70 W9        29.84R WCI  30
WATERFRONT PRK   N/A     39  30  70 W7        29.66R WCI  34
MOUNT PLEASANT FAIR      39  30  70 W10G16    29.83R WCI  32
JOHNS ISLAND   FAIR      39  28  65 SW6       29.85R WCI  35
PINOPOLIS        N/A     39  28  65 W13       29.73R WCI  32
MONCKS CORNER  FAIR      34  23  64 SW5       29.82R WCI  30
SUMMERVILLE    NOT AVBL
BEAUFORT MCAS  FAIR      38  27  64 W14       29.88R WCI  30
BEAUFORT ARPT  FAIR      39  28  65 W10       29.87R WCI  32
HILTON HEAD IS CLEAR     39  30  70 SW10G18   29.89R WCI  32
WALTERBORO     FAIR      37  30  75 W9        29.85R WCI  31
ALLENDALE      CLOUDY    37  28  70 CALM      29.84R

...SOUTHERN MIDLANDS AND PEE DEE...

CITY           SKY/WX    TMP DP  RH WIND       PRES   REMARKS
GEORGETOWN     NOT AVBL
KINGSTREE      NOT AVBL
ORANGEBURG     CLOUDY    37  25  61 W12       29.81R WCI  29
BARNWELL       CLOUDY    39  30  70 SW12      29.83R WCI  32
AIKEN          PTSUNNY   34  25  69 W10       29.82R WCI  26
MANNING        NOT AVBL
COLUMBIA       FAIR      37  21  52 W9        29.78R WCI  30
SUMTER         FAIR      35  22  60 SW10      29.75R WCI  27
FLORENCE       FAIR      36  24  62 W13       29.75R WCI  27
MYRTLE BEACH   CLEAR     39  23  52 W10       29.78R WCI  32
N MYRTLE BEACH FAIR      39  27  62 W9        29.75R WCI  33

$$

GAZ063-065-086>088-099>101-113>116-118-119-134>141-150-091400-
...SOUTHEAST GEORGIA...

CITY           SKY/WX    TMP DP  RH WIND       PRES   REMARKS
SAVANNAH ARPT  FAIR      37  27  67 W12       29.90R WCI  29
HUNTER AAF     FAIR      37  29  73 SW12      29.88R WCI  29
FORT STEWART   FAIR      37  28  70 SW13G18   29.90R WCI  29
STATESBORO     CLOUDY    41  22  47 W12       29.89R
SYLVANIA       CLOUDY    38  30  71 W7        29.87R WCI  33
CLAXTON        FAIR      38  30  73 SW9G17    29.90R WCI  32

...CSRA...CENTRAL AND FAR SOUTHEAST GEORGIA...

CITY           SKY/WX    TMP DP  RH WIND       PRES   REMARKS
THOMSON        MOCLDY    38  27  62 W9        29.87R WCI  32
AUGUSTA-BUSH   MOCLDY    39  24  55 W15       29.83R WCI  31
AUGUSTA-DANIEL CLOUDY    38  24  57 W8        29.83R WCI  32
SWAINSBORO     CLOUDY    36  27  69 W10       29.89R WCI  28
VIDALIA        CLOUDY    37  28  70 W8G17     29.91R WCI  31
EASTMAN        CLOUDY    39  26  58 W10       29.94R WCI  32
HAZLEHURST     CLOUDY    39  29  68 SW6       29.92R WCI  34
ALMA           FAIR      37  26  64 SW9       29.94R WCI  30
WAYCROSS       FAIR      40  30  69 SW8       29.96S WCI  34
JESUP          FAIR      41  32  70 W8        29.95R
BAXLEY         FAIR      39  28  65 W7        29.93R WCI  34
BRUNSWICK      FAIR      39  32  75 W12       29.97R WCI  32
SAINT SIMONS   FAIR      40  28  62 W14G22    29.96R WCI  32

$$

SCZ027-028-034-036>038-045-046-048>050-GAZ119-141-091400-
...LAKE AND SUPPLEMENTAL COASTAL OBSERVATIONS...

STATION/POSITION TIME  TEMP    WIND        PRES    WAVE   SWELL
                       AIR SEA DIR/SP/G            HT/PER HT/PER/DIR
                 (UTC) (F)     (DEG/KT/KT) (MB)    (FT/S) (FT/S/D)
WINYAH BAY       NOT AVBL
LAKE MURRAY      NOT AVBL
ACE BASIN NERRS  NOT AVBL
FORT PULASKI     NOT AVBL
SAPELO ISLAND    NOT AVBL

$$

ANZ835-935-AMZ111-154-330-350-352-354-370-450-454-472-091400-
...C-MAN AND BUOY OBSERVATIONS...

STATION/POSITION TIME  TEMP    WIND        PRES    WAVE   SWELL
                       AIR SEA DIR/SP/G            HT/PER HT/PER/DIR
                 (UTC) (F)     (DEG/KT/KT) (MB)    (FT/S) (FT/S/D)
BUOY 41004       NOT AVBL
BUOY 41008       NOT AVBL
FOLLY BEACH CMAN NOT AVBL
CAPERS NEARSHORE NOT AVBL
FRIPP NEARSHORE  NOT AVBL


STATION/POSITION TIME  TEMP    WIND        PRES    WAVE   SWELL
                       AIR SEA DIR/SP/G            HT/PER HT/PER/DIR
                 (UTC) (F)     (DEG/KT/KT) (MB)    (FT/S) (FT/S/D)
5E ST. MARYS GA  NOT AVBL
FRYING PAN BUOY  NOT AVBL
BUOY 41025       NOT AVBL
CAPE LOOKOUT NC  NOT AVBL
BUOY 41002       NOT AVBL
BUOY 41010       NOT AVBL
ST AUGUSTINE FL  NOT AVBL


$$




USA.gov is the U.S. government's official web portal to all federal, state and local government web resources and services.